Observations

BIA Manual Entry


Date Temp Humidity Rainfall Dew Point Wind Direction Wind Speed Wind Pressure Condition Visibility
2025-04-16 12:03:34 32 66 24 330 9.5 1010 Partly Cloudy (Day) 20KM
2025-04-16 11:23:45 31 69 24 040 7.6 1010 Partly Cloudy (Day) 20KM
2025-04-16 10:00:59 30 74 0.0 25 030 16 1011 Cloudy 20 km
2025-04-16 09:00:14 29 77 0.0 25 050 6 1010 Cloudy 20 km
2025-04-16 08:00:24 27 86 0.00 24 190 1.9 1009 Partly Cloudy (Day) 15 km
2025-04-16 06:59:42 25 91 0.00 24 170 1.9 1009 Partly Cloudy (Day) 15 km
2025-04-16 05:59:39 25 95 0.00 24 160 1.9 1008 Partly Cloudy (Day) 10 km
2025-04-16 05:01:38 25 95 0.00 24 050 1.9 1008 Partly Cloudy (Night) 10 km
2025-04-16 03:59:18 25 92 0.0 24 190 3.8 1008 Partly Cloudy (Night) 10 km
2025-04-16 03:04:46 25 92 0.00 24 220 3.8 1009 Partly Cloudy (Night) 10 km
2025-04-16 02:01:31 25 91 0.00 23 190 3.8 1009 Cloudy 10 KM
2025-04-16 01:01:36 25 90 0.00 23 160 3.8 1010 Cloudy 10 KM
2025-04-15 23:59:20 25 95 0.00 24 170 1.9 1011 Cloudy 10 KM
2025-04-15 22:58:06 25 94 0.00 24 190 5.7 1011 Cloudy 10 KM
2025-04-15 22:33:18 25 94 0.00 24 090 5.7 1011 Cloudy 10 KM
2025-04-15 22:32:03 25 97 24 150 5.7 1010 Partly Cloudy (Night) 10 KM
2025-04-15 22:31:45 25 97 24 150 5.7 1010 Partly Cloudy (Night) 10 KM
2025-04-15 20:58:48 25 90 0 24 170 1.9 1010 Cloudy 10 KM
2025-04-15 20:00:42 25 91 0 24 140 3.8 1010 Cloudy 10 KM
2025-04-15 18:59:03 26 94 0 25 160 5.7 1009 Rain 10 KM
2025-04-15 18:02:41 28 88 0 25 140 5.7 1009 Rain 10 KM
2025-04-15 16:59:32 28 82 0.01 25 260 12 1009 Thundershowers 10 km
2025-04-15 16:01:42 29 82 0.01 25 300 14 1008 Thundershowers 10 km
2025-04-15 15:01:03 29 79 0.01 25 290 20 1008 Thundershowers 10 km
2025-04-15 14:09:11 30 79 0.0 25 310 22 1009 Distant showers 15 km